Weather History for Pittsfield, IL

Change the Weather History Date:

Tuesday, October 16, 2012

  Actual Average (KUIN) Record (KUIN)
Temperature  
Mean Temperature 64 °F 55 °F  
Max Temperature 79 °F 65 °F 88 °F (1950)
Min Temperature 48 °F 44 °F 29 °F (2002)
Degree Days  
Heating Degree Days 1 11  
Month to date heating degree days 139  
Since 1 July heating degree days 226  
Cooling Degree Days 0 0  
Month to date cooling degree days 14  
Year to date cooling degree days 1090  
Growing Degree Days 14 (Base 50)    
Moisture  
Dew Point 47 °F    
Average Humidity 58    
Maximum Humidity 83    
Minimum Humidity 32    
Precipitation  
Precipitation 0.00 in 0.09 in 1.28 in (1989)
Month to date precipitation 1.57  
Year to date precipitation 30.62  
Sea Level Pressure  
Sea Level Pressure 29.73 in    
Wind  
Wind Speed 7 mph (South)    
Max Wind Speed 17 mph    
Max Gust Speed 26 mph    
Visibility 10 miles    
Events      
T = Trace of Precipitation, MM = Missing Value Source: NWS Daily Summary

Daily Weather History Graph

Daily Weather History Graph

Search for Another Location

Airport:

Trip Planner

Search our weather history database for the weather conditions in past years. The results will help you decide how hot, cold, wet, or windy it might be!

Date:

Astronomy

Oct. 16, 2012 Rise Set
Actual Time 7:14 AM CDT 6:21 PM CDT
Civil Twilight 6:47 AM CDT 6:48 PM CDT
Nautical Twilight 6:16 AM CDT 7:20 PM CDT
Astronomical Twilight 5:45 AM CDT 7:51 PM CDT
Moon 8:37 AM CDT (10/16) 7:06 PM CDT (10/16)
Length of Visible Light 12h 01m
Length of Day
11h 06m
New Moon, 2% of the Moon is Illuminated
Oct 16
New Moon
Oct 21
First Quarter
Oct 29
Full
Nov 6
Last Quarter
Nov 13
New

Hourly Weather History & Observations

Time (CDT) Temp. Dew Point Humidity Pressure Visibility Wind Dir Wind Speed Gust Speed Precip Events Conditions
12:15 AM 50.0 °F 44.8 °F 82% 29.93 in 10.0 mi Calm Calm - N/A   Clear
12:35 AM 50.0 °F 44.6 °F 82% 29.93 in 1.0 mi ESE 3.5 mph - N/A   Haze
12:55 AM 50.9 °F 43.9 °F 77% 29.93 in 4.0 mi Calm Calm - N/A   Haze
1:15 AM 50.4 °F 43.9 °F 78% 29.93 in 4.0 mi SE 3.5 mph - N/A   Haze
1:35 AM 49.6 °F 43.7 °F 80% 29.93 in 7.0 mi SSE 3.5 mph - N/A   Clear
1:55 AM 50.5 °F 43.3 °F 76% 29.93 in 10.0 mi SE 4.6 mph - N/A   Clear
2:15 AM 50.2 °F 43.3 °F 77% 29.92 in 10.0 mi ESE 5.8 mph - N/A   Clear
2:35 AM 49.6 °F 43.7 °F 80% 29.91 in 10.0 mi ESE 6.9 mph - N/A   Clear
2:55 AM 49.6 °F 43.7 °F 80% 29.91 in 10.0 mi SE 4.6 mph - N/A   Clear
3:15 AM 50.0 °F 43.7 °F 79% 29.90 in 10.0 mi SE 4.6 mph - N/A   Clear
3:35 AM 49.3 °F 43.7 °F 81% 29.88 in 10.0 mi SE 6.9 mph - N/A   Clear
3:55 AM 49.3 °F 43.7 °F 81% 29.87 in 10.0 mi SE 5.8 mph - N/A   Clear
4:15 AM 49.5 °F 44.1 °F 82% 29.86 in 10.0 mi SE 5.8 mph - N/A   Clear
4:35 AM 48.7 °F 43.7 °F 83% 29.85 in 10.0 mi SE 6.9 mph - N/A   Clear
4:55 AM 50.0 °F 44.6 °F 82% 29.85 in 10.0 mi SE 5.8 mph - N/A   Clear
5:15 AM 50.0 °F 44.2 °F 81% 29.84 in 10.0 mi SE 6.9 mph - N/A   Clear
5:35 AM 50.2 °F 44.6 °F 81% 29.83 in 10.0 mi SE 6.9 mph - N/A   Clear
5:55 AM 51.8 °F 44.6 °F 76% 29.83 in 10.0 mi SE 8.1 mph - N/A   Clear
6:15 AM 50.9 °F 44.6 °F 79% 29.83 in 10.0 mi SE 6.9 mph - N/A   Clear
6:35 AM 50.7 °F 44.8 °F 80% 29.83 in 10.0 mi SE 8.1 mph - N/A   Clear
6:55 AM 50.0 °F 44.6 °F 82% 29.82 in 10.0 mi SE 8.1 mph - N/A   Clear
7:15 AM 50.4 °F 45.0 °F 82% 29.82 in 10.0 mi SE 8.1 mph - N/A   Clear
7:35 AM 50.4 °F 45.1 °F 82% 29.82 in 10.0 mi SSE 8.1 mph - N/A   Clear
7:55 AM 51.1 °F 45.9 °F 82% 29.82 in 10.0 mi SSE 8.1 mph - N/A   Clear
8:15 AM 53.6 °F 46.4 °F 77% 29.81 in 10.0 mi SSE 9.2 mph - N/A   Clear
8:35 AM 53.6 °F 47.3 °F 79% 29.81 in 10.0 mi SE 8.1 mph - N/A   Clear
8:55 AM 55.4 °F 48.6 °F 78% 29.81 in 10.0 mi SSE 9.2 mph - N/A   Clear
9:15 AM 57.2 °F 49.3 °F 75% 29.80 in 10.0 mi SSE 10.4 mph - N/A   Clear
9:35 AM 59.4 °F 50.4 °F 72% 29.80 in 10.0 mi South 9.2 mph - N/A   Clear
9:55 AM 61.0 °F 50.9 °F 69% 29.79 in 10.0 mi SSE 11.5 mph - N/A   Clear
10:15 AM 63.5 °F 52.0 °F 66% 29.78 in 10.0 mi South 10.4 mph - N/A   Clear
10:35 AM 66.2 °F 51.8 °F 60% 29.77 in 10.0 mi South 10.4 mph - N/A   Clear
10:55 AM 68.0 °F 51.8 °F 56% 29.76 in 10.0 mi South 10.4 mph - N/A   Clear
11:15 AM 69.4 °F 51.3 °F 52% 29.75 in 10.0 mi South 13.8 mph - N/A   Clear
11:35 AM 70.5 °F 52.0 °F 52% 29.74 in 10.0 mi South 13.8 mph - N/A   Scattered Clouds
11:55 AM 70.7 °F 51.8 °F 51% 29.73 in 10.0 mi South 13.8 mph - N/A   Scattered Clouds
12:15 PM 72.9 °F 53.4 °F 50% 29.72 in 10.0 mi South 11.5 mph 20.7 mph N/A   Clear
12:35 PM 73.4 °F 53.4 °F 49% 29.70 in 10.0 mi SSW 15.0 mph 20.7 mph N/A   Clear
12:55 PM 74.7 °F 51.6 °F 44% 29.69 in 10.0 mi South 15.0 mph - N/A   Clear
1:15 PM 74.5 °F 53.1 °F 47% 29.67 in 10.0 mi South 6.9 mph - N/A   Clear
1:35 PM 77.5 °F 51.1 °F 40% 29.66 in 10.0 mi South 11.5 mph 19.6 mph N/A   Clear
1:55 PM 78.3 °F 51.4 °F 39% 29.65 in 10.0 mi SSW 12.7 mph 19.6 mph N/A   Clear
2:15 PM 79.3 °F 50.5 °F 36% 29.64 in 10.0 mi SSW 12.7 mph 20.7 mph N/A   Clear
2:35 PM 79.3 °F 49.5 °F 35% 29.63 in 10.0 mi SSW 12.7 mph 26.5 mph N/A   Clear
2:55 PM 78.1 °F 48.0 °F 35% 29.63 in 10.0 mi SSW 17.3 mph 24.2 mph N/A   Clear
3:15 PM 77.9 °F 49.3 °F 37% 29.62 in 10.0 mi SSW 11.5 mph - N/A   Clear
3:35 PM 78.4 °F 48.0 °F 34% 29.61 in 10.0 mi SSW 10.4 mph 16.1 mph N/A   Clear
3:55 PM 79.0 °F 48.2 °F 34% 29.60 in 10.0 mi SSW 15.0 mph - N/A   Clear
4:15 PM 79.3 °F 47.8 °F 33% 29.60 in 10.0 mi SSW 11.5 mph 18.4 mph N/A   Clear
4:35 PM 80.6 °F 48.2 °F 32% 29.59 in 10.0 mi SSW 11.5 mph 21.9 mph N/A   Clear
4:55 PM 79.7 °F 47.8 °F 33% 29.59 in 10.0 mi SSW 11.5 mph - N/A   Clear
5:15 PM 79.0 °F 47.1 °F 32% 29.58 in 10.0 mi SSW 10.4 mph 17.3 mph N/A   Clear
5:35 PM 78.3 °F 47.1 °F 33% 29.58 in 10.0 mi SSW 9.2 mph - N/A   Clear
5:55 PM 77.9 °F 46.4 °F 33% 29.57 in 10.0 mi SSW 10.4 mph 18.4 mph N/A   Clear
6:15 PM 76.8 °F 45.7 °F 33% 29.57 in 10.0 mi SSW 10.4 mph 18.4 mph N/A   Clear
6:35 PM 75.7 °F 45.5 °F 34% 29.57 in 10.0 mi SSW 10.4 mph - N/A   Clear
6:55 PM 74.3 °F 45.3 °F 36% 29.58 in 10.0 mi SSW 11.5 mph - N/A   Clear
7:15 PM 74.1 °F 44.6 °F 35% 29.58 in 10.0 mi South 9.2 mph - N/A   Clear
7:35 PM 71.4 °F 45.9 °F 40% 29.58 in 10.0 mi South 6.9 mph - N/A   Clear
7:55 PM 69.1 °F 46.8 °F 45% 29.58 in 10.0 mi South 8.1 mph - N/A   Clear
8:15 PM 69.1 °F 46.6 °F 45% 29.58 in 10.0 mi South 9.2 mph - N/A   Clear
8:35 PM 70.7 °F 45.7 °F 41% 29.58 in 10.0 mi South 15.0 mph 21.9 mph N/A   Clear
8:55 PM 70.3 °F 45.9 °F 41% 29.59 in 10.0 mi South 10.4 mph 17.3 mph N/A   Clear
9:15 PM 69.4 °F 46.2 °F 43% 29.59 in 10.0 mi South 11.5 mph - N/A   Clear
9:35 PM 69.3 °F 46.2 °F 44% 29.60 in 10.0 mi South 11.5 mph - N/A   Clear
9:55 PM 68.9 °F 46.0 °F 44% 29.60 in 10.0 mi South 12.7 mph - N/A   Clear
10:15 PM 68.2 °F 45.9 °F 45% 29.61 in 10.0 mi South 11.5 mph 18.4 mph N/A   Clear
10:35 PM 67.6 °F 45.7 °F 45% 29.61 in 10.0 mi South 11.5 mph - N/A   Clear
10:55 PM 66.9 °F 45.9 °F 47% 29.61 in 10.0 mi South 8.1 mph - N/A   Scattered Clouds
11:15 PM 66.4 °F 46.4 °F 49% 29.61 in 10.0 mi South 10.4 mph - N/A   Clear
11:35 PM 66.2 °F 46.4 °F 49% 29.61 in 10.0 mi South 11.5 mph 17.3 mph N/A   Clear
11:55 PM 65.5 °F 46.8 °F 51% 29.61 in 10.0 mi South 11.5 mph - N/A   Clear